Time,TemperatureF,DewpointF,PressureIn,WindDirection,WindDirectionDegrees,WindSpeedMPH,WindSpeedGustMPH,Humidity,HourlyPrecipIn,Conditions,Clouds,dailyrainin,SoftwareType,DateUTC
2013-01-29 00:01:00,54.7,50.9,30.20,SW,216,5.0,13.0,87,0.00,,,0.00,Wunderground v.1.15,2013-01-29 05:01:00,
2013-01-29 00:03:00,54.9,51.1,30.20,WSW,244,7.0,14.0,87,0.00,,,0.00,Wunderground v.1.15,2013-01-29 05:03:00,
2013-01-29 00:06:00,55.0,50.9,30.20,WSW,246,7.0,14.0,86,0.00,,,0.00,Wunderground v.1.15,2013-01-29 05:06:00,
2013-01-29 00:07:00,55.0,50.9,30.20,SW,231,7.0,14.0,86,0.00,,,0.00,Wunderground v.1.15,2013-01-29 05:07:00,
2013-01-29 00:10:00,55.0,50.9,30.20,WSW,248,7.0,7.0,86,0.00,,,0.00,Wunderground v.1.15,2013-01-29 05:10:00,
2013-01-29 00:12:00,54.9,50.8,30.20,West,265,6.0,14.0,86,0.00,,,0.00,Wunderground v.1.15,2013-01-29 05:12:00,
2013-01-29 00:13:00,54.9,50.8,30.20,WSW,251,6.0,14.0,86,0.00,,,0.00,Wunderground v.1.15,2013-01-29 05:13:00,
2013-01-29 00:14:00,54.9,50.8,30.20,West,259,6.0,14.0,86,0.00,,,0.00,Wunderground v.1.15,2013-01-29 05:14:00,
2013-01-29 00:16:00,54.9,51.1,30.20,WSW,246,6.0,14.0,87,0.00,,,0.00,Wunderground v.1.15,2013-01-29 05:16:00,
2013-01-29 00:18:00,54.9,51.1,30.20,WSW,258,5.0,14.0,87,0.00,,,0.00,Wunderground v.1.15,2013-01-29 05:18:00,
2013-01-29 00:21:00,54.8,51.0,30.20,WSW,242,5.0,14.0,87,0.00,,,0.00,Wunderground v.1.15,2013-01-29 05:21:00,
2013-01-29 00:22:00,54.8,51.0,30.20,WSW,246,5.0,14.0,87,0.00,,,0.00,Wunderground v.1.15,2013-01-29 05:22:00,
2013-01-29 00:24:00,54.8,51.0,30.20,WSW,250,5.0,14.0,87,0.00,,,0.00,Wunderground v.1.15,2013-01-29 05:24:00,
2013-01-29 00:27:00,54.8,51.0,30.20,West,261,5.0,14.0,87,0.00,,,0.00,Wunderground v.1.15,2013-01-29 05:27:00,
2013-01-29 00:29:00,54.8,51.0,30.20,WSW,255,5.0,14.0,87,0.00,,,0.00,Wunderground v.1.15,2013-01-29 05:29:00,
2013-01-29 00:32:00,55.0,51.2,30.20,WSW,237,6.0,14.0,87,0.00,,,0.00,Wunderground v.1.15,2013-01-29 05:32:00,
2013-01-29 00:33:00,54.9,51.1,30.20,WSW,251,6.0,14.0,87,0.00,,,0.00,Wunderground v.1.15,2013-01-29 05:33:00,
2013-01-29 00:34:00,54.9,51.1,30.20,WSW,251,5.0,14.0,87,0.00,,,0.00,Wunderground v.1.15,2013-01-29 05:34:00,
2013-01-29 00:38:00,55.0,50.9,30.20,West,270,5.0,14.0,86,0.00,,,0.00,Wunderground v.1.15,2013-01-29 05:38:00,
2013-01-29 00:39:00,55.0,50.9,30.20,West,265,5.0,5.0,86,0.00,,,0.00,Wunderground v.1.15,2013-01-29 05:39:00,
2013-01-29 00:42:00,55.0,50.9,30.20,WSW,253,5.0,14.0,86,0.00,,,0.00,Wunderground v.1.15,2013-01-29 05:42:00,
2013-01-29 00:47:00,55.1,51.0,30.20,West,261,5.0,14.0,86,0.00,,,0.00,Wunderground v.1.15,2013-01-29 05:47:00,
2013-01-29 00:48:00,55.1,51.0,30.20,SW,227,5.0,14.0,86,0.00,,,0.00,Wunderground v.1.15,2013-01-29 05:48:00,
2013-01-29 00:53:00,55.1,51.0,30.20,West,267,7.0,14.0,86,0.00,,,0.00,Wunderground v.1.15,2013-01-29 05:53:00,
2013-01-29 00:54:00,55.1,51.0,30.20,SW,223,7.0,14.0,86,0.00,,,0.00,Wunderground v.1.15,2013-01-29 05:54:00,
2013-01-29 00:57:00,55.0,50.9,30.20,SW,218,6.0,14.0,86,0.00,,,0.00,Wunderground v.1.15,2013-01-29 05:57:00,
2013-01-29 00:58:00,55.0,50.9,30.20,West,259,6.0,14.0,86,0.00,,,0.00,Wunderground v.1.15,2013-01-29 05:58:00,
2013-01-29 01:02:00,55.0,50.9,30.20,West,279,6.0,17.0,86,0.00,,,0.00,Wunderground v.1.15,2013-01-29 06:02:00,
2013-01-29 01:03:00,55.0,50.9,30.20,WSW,239,5.0,17.0,86,0.00,,,0.00,Wunderground v.1.15,2013-01-29 06:03:00,
2013-01-29 01:04:00,55.0,50.9,30.20,West,265,5.0,17.0,86,0.00,,,0.00,Wunderground v.1.15,2013-01-29 06:04:00,
2013-01-29 01:07:00,55.1,51.0,30.20,WSW,251,6.0,17.0,86,0.00,,,0.00,Wunderground v.1.15,2013-01-29 06:07:00,
2013-01-29 01:10:00,55.0,50.9,30.20,West,263,6.0,17.0,86,0.00,,,0.00,Wunderground v.1.15,2013-01-29 06:10:00,
2013-01-29 01:11:00,55.0,50.9,30.20,SW,231,6.0,17.0,86,0.00,,,0.00,Wunderground v.1.15,2013-01-29 06:11:00,
2013-01-29 01:14:00,55.0,50.9,30.20,WSW,255,5.0,17.0,86,0.00,,,0.00,Wunderground v.1.15,2013-01-29 06:14:00,
2013-01-29 01:15:00,55.0,50.9,30.20,WSW,258,5.0,17.0,86,0.00,,,0.00,Wunderground v.1.15,2013-01-29 06:15:00,
2013-01-29 01:16:00,55.0,50.9,30.20,WSW,245,5.0,17.0,86,0.00,,,0.00,Wunderground v.1.15,2013-01-29 06:16:00,
2013-01-29 01:19:00,55.0,50.9,30.20,West,267,6.0,17.0,86,0.00,,,0.00,Wunderground v.1.15,2013-01-29 06:19:00,
2013-01-29 01:20:00,55.0,50.9,30.20,West,263,5.0,5.0,86,0.00,,,0.00,Wunderground v.1.15,2013-01-29 06:20:00,
2013-01-29 01:21:00,54.9,50.8,30.20,WNW,294,5.0,8.0,86,0.00,,,0.00,Wunderground v.1.15,2013-01-29 06:21:00,
2013-01-29 01:22:00,54.9,50.8,30.20,SW,236,5.0,9.0,86,0.00,,,0.00,Wunderground v.1.15,2013-01-29 06:22:00,
2013-01-29 01:24:00,54.9,50.8,30.20,WSW,258,6.0,17.0,86,0.00,,,0.00,Wunderground v.1.15,2013-01-29 06:24:00,
2013-01-29 01:26:00,54.9,50.8,30.20,WSW,246,6.0,17.0,86,0.00,,,0.00,Wunderground v.1.15,2013-01-29 06:26:00,
2013-01-29 01:28:00,55.0,50.9,30.20,West,273,5.0,17.0,86,0.00,,,0.00,Wunderground v.1.15,2013-01-29 06:28:00,
2013-01-29 01:30:00,54.9,50.8,30.20,NNW,331,5.0,17.0,86,0.00,,,0.00,Wunderground v.1.15,2013-01-29 06:30:00,
2013-01-29 01:32:00,54.9,50.8,30.20,SW,229,5.0,17.0,86,0.00,,,0.00,Wunderground v.1.15,2013-01-29 06:32:00,
2013-01-29 01:33:00,54.9,50.8,30.20,West,281,5.0,17.0,86,0.00,,,0.00,Wunderground v.1.15,2013-01-29 06:33:00,